Time,TemperatureF,DewpointF,PressureIn,WindDirection,WindDirectionDegrees,WindSpeedMPH,WindSpeedGustMPH,Humidity,HourlyPrecipIn,Conditions,Clouds,dailyrainin,SolarRadiationWatts/m^2,SoftwareType,DateUTC
2013-01-11 00:02:00,33.0,19.0,-100.00,South,182,7.0,18.0,56,0.00,,,0.00,0.000000,,2013-01-11 07:02:00,
2013-01-11 00:11:00,33.0,19.0,-100.00,South,182,7.0,18.0,56,0.00,,,0.00,0.000000,,2013-01-11 07:11:00,
2013-01-11 00:22:00,33.0,19.0,-100.00,South,182,7.0,18.0,56,0.00,,,0.00,0.000000,,2013-01-11 07:22:00,
2013-01-11 00:30:00,32.0,19.0,-100.00,SSE,167,5.0,16.0,58,0.00,,,0.00,0.000000,,2013-01-11 07:30:00,
2013-01-11 00:52:00,32.0,19.0,-100.00,SSE,167,5.0,16.0,58,0.00,,,0.00,0.000000,,2013-01-11 07:52:00,
2013-01-11 01:02:00,32.0,19.0,-100.00,SSE,167,5.0,16.0,58,0.00,,,0.00,0.000000,,2013-01-11 08:02:00,
2013-01-11 01:12:00,32.0,19.0,-100.00,SSE,167,5.0,16.0,58,0.00,,,0.00,0.000000,,2013-01-11 08:12:00,
2013-01-11 01:22:00,32.0,19.0,-100.00,SSE,167,5.0,16.0,58,0.00,,,0.00,0.000000,,2013-01-11 08:22:00,
2013-01-11 01:30:00,31.0,20.0,-100.00,South,179,6.0,18.0,64,0.00,,,0.00,0.000000,,2013-01-11 08:30:00,
2013-01-11 01:52:00,31.0,20.0,-100.00,South,179,6.0,18.0,64,0.00,,,0.00,0.000000,,2013-01-11 08:52:00,
2013-01-11 02:02:00,31.0,20.0,-100.00,South,179,6.0,18.0,64,0.00,,,0.00,0.000000,,2013-01-11 09:02:00,
2013-01-11 02:12:00,31.0,20.0,-100.00,South,179,6.0,18.0,64,0.00,,,0.00,0.000000,,2013-01-11 09:12:00,
2013-01-11 02:22:00,31.0,20.0,-100.00,South,179,6.0,18.0,64,0.00,,,0.00,0.000000,,2013-01-11 09:22:00,
2013-01-11 02:30:00,27.0,25.0,-100.00,South,191,8.0,21.0,92,0.02,,,0.02,0.000000,,2013-01-11 09:30:00,
2013-01-11 02:52:00,27.0,25.0,-100.00,South,191,8.0,21.0,92,0.02,,,0.02,0.000000,,2013-01-11 09:52:00,
2013-01-11 03:02:00,27.0,25.0,-100.00,South,191,8.0,21.0,92,0.02,,,0.02,0.000000,,2013-01-11 10:02:00,
2013-01-11 03:12:00,27.0,25.0,-100.00,South,191,8.0,21.0,92,0.02,,,0.02,0.000000,,2013-01-11 10:12:00,
2013-01-11 03:22:00,27.0,25.0,-100.00,South,191,8.0,21.0,92,0.02,,,0.02,0.000000,,2013-01-11 10:22:00,
2013-01-11 03:30:00,22.0,20.0,-100.00,WSW,243,12.0,23.0,92,0.06,,,0.08,0.000000,,2013-01-11 10:30:00,
2013-01-11 03:52:00,22.0,20.0,-100.00,WSW,243,12.0,23.0,92,0.06,,,0.08,0.000000,,2013-01-11 10:52:00,
2013-01-11 04:02:00,22.0,20.0,-100.00,WSW,243,12.0,23.0,92,0.06,,,0.08,0.000000,,2013-01-11 11:02:00,
2013-01-11 04:12:00,22.0,20.0,-100.00,WSW,243,12.0,23.0,92,0.06,,,0.08,0.000000,,2013-01-11 11:12:00,
2013-01-11 04:22:00,22.0,20.0,-100.00,WSW,243,12.0,23.0,92,0.06,,,0.08,0.000000,,2013-01-11 11:22:00,
2013-01-11 04:30:00,20.0,16.0,-100.00,WSW,245,8.0,25.0,86,0.04,,,0.12,0.000000,,2013-01-11 11:30:00,
2013-01-11 04:53:00,20.0,16.0,-100.00,WSW,245,8.0,25.0,86,0.04,,,0.12,0.000000,,2013-01-11 11:53:00,
2013-01-11 05:02:00,20.0,16.0,-100.00,WSW,245,8.0,25.0,86,0.04,,,0.12,0.000000,,2013-01-11 12:02:00,
2013-01-11 05:12:00,20.0,16.0,-100.00,WSW,245,8.0,25.0,86,0.04,,,0.12,0.000000,,2013-01-11 12:12:00,
2013-01-11 05:22:00,20.0,16.0,-100.00,WSW,245,8.0,25.0,86,0.04,,,0.12,0.000000,,2013-01-11 12:22:00,
2013-01-11 05:30:00,19.0,16.0,-100.00,SW,232,7.0,18.0,86,0.00,,,-99.99,0.000000,,2013-01-11 12:30:00,
2013-01-11 05:53:00,19.0,16.0,-100.00,SW,232,7.0,18.0,86,0.00,,,-99.99,0.000000,,2013-01-11 12:53:00,
2013-01-11 06:02:00,19.0,16.0,-100.00,SW,232,7.0,18.0,86,0.00,,,-99.99,0.000000,,2013-01-11 13:02:00,
2013-01-11 06:12:00,19.0,16.0,-100.00,SW,232,7.0,18.0,86,0.00,,,-99.99,0.000000,,2013-01-11 13:12:00,
2013-01-11 06:22:00,19.0,16.0,-100.00,SW,232,7.0,18.0,86,0.00,,,-99.99,0.000000,,2013-01-11 13:22:00,
2013-01-11 06:30:00,16.0,13.0,-100.00,WSW,241,8.0,21.0,86,0.01,,,-99.99,0.000000,,2013-01-11 13:30:00,
2013-01-11 06:53:00,16.0,13.0,-100.00,WSW,241,8.0,21.0,86,0.01,,,-99.99,0.000000,,2013-01-11 13:53:00,
2013-01-11 07:03:00,16.0,13.0,-100.00,WSW,241,8.0,21.0,86,0.01,,,-99.99,0.000000,,2013-01-11 14:03:00,
2013-01-11 07:12:00,16.0,13.0,-100.00,WSW,241,8.0,21.0,86,0.01,,,-99.99,0.000000,,2013-01-11 14:12:00,
2013-01-11 07:22:00,16.0,13.0,-100.00,WSW,241,8.0,21.0,86,0.01,,,-99.99,0.000000,,2013-01-11 14:22:00,
2013-01-11 07:30:00,16.0,13.0,-100.00,SW,233,8.0,21.0,87,0.00,,,0.13,0.000000,,2013-01-11 14:30:00,
2013-01-11 07:53:00,16.0,13.0,-100.00,SW,233,8.0,21.0,87,0.00,,,0.13,0.000000,,2013-01-11 14:53:00,
2013-01-11 08:03:00,16.0,13.0,-100.00,SW,233,8.0,21.0,87,0.00,,,0.13,0.000000,,2013-01-11 15:03:00,
2013-01-11 08:12:00,16.0,13.0,-100.00,SW,233,8.0,21.0,87,0.00,,,0.13,0.000000,,2013-01-11 15:12:00,
2013-01-11 08:22:00,16.0,13.0,-100.00,SW,233,8.0,21.0,87,0.00,,,0.13,0.000000,,2013-01-11 15:22:00,
2013-01-11 08:30:00,16.0,12.0,-100.00,SW,231,8.0,19.0,85,0.01,,,0.14,30.000000,,2013-01-11 15:30:00,
2013-01-11 08:53:00,16.0,12.0,-100.00,SW,231,8.0,19.0,85,0.01,,,0.14,30.000000,,2013-01-11 15:53:00,
2013-01-11 09:02:00,16.0,12.0,-100.00,SW,231,8.0,19.0,85,0.01,,,0.14,30.000000,,2013-01-11 16:02:00,
2013-01-11 09:12:00,16.0,12.0,-100.00,SW,231,8.0,19.0,85,0.01,,,0.14,30.000000,,2013-01-11 16:12:00,
2013-01-11 09:22:00,16.0,12.0,-100.00,SW,231,8.0,19.0,85,0.01,,,0.14,30.000000,,2013-01-11 16:22:00,
2013-01-11 09:30:00,15.0,9.0,-100.00,WSW,240,8.0,20.0,78,0.00,,,0.14,104.000000,,2013-01-11 16:30:00,
2013-01-11 09:53:00,15.0,9.0,-100.00,WSW,240,8.0,20.0,78,0.00,,,0.14,104.000000,,2013-01-11 16:53:00,
2013-01-11 10:03:00,15.0,9.0,-100.00,WSW,240,8.0,20.0,78,0.00,,,0.14,104.000000,,2013-01-11 17:03:00,
2013-01-11 10:12:00,15.0,9.0,-100.00,WSW,240,8.0,20.0,78,0.00,,,0.14,104.000000,,2013-01-11 17:12:00,
2013-01-11 10:22:00,15.0,9.0,-100.00,WSW,240,8.0,20.0,78,0.00,,,0.14,104.000000,,2013-01-11 17:22:00,
2013-01-11 10:30:00,17.0,7.0,-100.00,WSW,240,11.0,22.0,65,0.00,,,0.14,349.000000,,2013-01-11 17:30:00,
2013-01-11 10:53:00,17.0,7.0,-100.00,WSW,240,11.0,22.0,65,0.00,,,0.14,349.000000,,2013-01-11 17:53:00,
2013-01-11 11:03:00,17.0,7.0,-100.00,WSW,240,11.0,22.0,65,0.00,,,0.14,349.000000,,2013-01-11 18:03:00,
2013-01-11 11:12:00,17.0,7.0,-100.00,WSW,240,11.0,22.0,65,0.00,,,0.14,349.000000,,2013-01-11 18:12:00,
2013-01-11 11:23:00,17.0,7.0,-100.00,WSW,240,11.0,22.0,65,0.00,,,0.14,349.000000,,2013-01-11 18:23:00,
2013-01-11 11:30:00,16.0,4.0,-100.00,WSW,243,9.0,21.0,59,0.00,,,0.14,443.000000,,2013-01-11 18:30:00,
2013-01-11 11:53:00,16.0,4.0,-100.00,WSW,243,9.0,21.0,59,0.00,,,0.14,443.000000,,2013-01-11 18:53:00,
2013-01-11 12:02:00,16.0,4.0,-100.00,WSW,243,9.0,21.0,59,0.00,,,0.14,443.000000,,2013-01-11 19:02:00,
2013-01-11 12:12:00,16.0,4.0,-100.00,WSW,243,9.0,21.0,59,0.00,,,0.14,443.000000,,2013-01-11 19:12:00,
2013-01-11 12:22:00,16.0,4.0,-100.00,WSW,243,9.0,21.0,59,0.00,,,0.14,443.000000,,2013-01-11 19:22:00,
2013-01-11 12:30:00,17.0,4.0,-100.00,WSW,250,8.0,20.0,55,0.00,,,0.14,494.000000,,2013-01-11 19:30:00,
2013-01-11 12:53:00,17.0,4.0,-100.00,WSW,250,8.0,20.0,55,0.00,,,0.14,494.000000,,2013-01-11 19:53:00,
2013-01-11 13:02:00,17.0,4.0,-100.00,WSW,250,8.0,20.0,55,0.00,,,0.14,494.000000,,2013-01-11 20:02:00,
2013-01-11 13:12:00,17.0,4.0,-100.00,WSW,250,8.0,20.0,55,0.00,,,0.14,494.000000,,2013-01-11 20:12:00,
2013-01-11 13:22:00,17.0,4.0,-100.00,WSW,250,8.0,20.0,55,0.00,,,0.14,494.000000,,2013-01-11 20:22:00,
2013-01-11 13:30:00,17.0,6.0,-100.00,SW,218,8.0,15.0,60,0.00,,,0.14,395.000000,,2013-01-11 20:30:00,
2013-01-11 13:53:00,17.0,6.0,-100.00,SW,218,8.0,15.0,60,0.00,,,0.14,395.000000,,2013-01-11 20:53:00,
2013-01-11 14:03:00,17.0,6.0,-100.00,SW,218,8.0,15.0,60,0.00,,,0.14,395.000000,,2013-01-11 21:03:00,
2013-01-11 14:12:00,17.0,6.0,-100.00,SW,218,8.0,15.0,60,0.00,,,0.14,395.000000,,2013-01-11 21:12:00,
2013-01-11 14:22:00,17.0,6.0,-100.00,SW,218,8.0,15.0,60,0.00,,,0.14,395.000000,,2013-01-11 21:22:00,
2013-01-11 14:30:00,16.0,6.0,-100.00,WSW,245,8.0,20.0,64,0.00,,,0.14,333.000000,,2013-01-11 21:30:00,
2013-01-11 14:53:00,16.0,6.0,-100.00,WSW,245,8.0,20.0,64,0.00,,,0.14,333.000000,,2013-01-11 21:53:00,
2013-01-11 15:02:00,16.0,6.0,-100.00,WSW,245,8.0,20.0,64,0.00,,,0.14,333.000000,,2013-01-11 22:02:00,
2013-01-11 15:12:00,16.0,6.0,-100.00,WSW,245,8.0,20.0,64,0.00,,,0.14,333.000000,,2013-01-11 22:12:00,
2013-01-11 15:22:00,16.0,6.0,-100.00,WSW,245,8.0,20.0,64,0.00,,,0.14,333.000000,,2013-01-11 22:22:00,
2013-01-11 15:30:00,19.0,3.0,-100.00,WSW,242,7.0,14.0,49,0.00,,,0.14,272.000000,,2013-01-11 22:30:00,
2013-01-11 15:53:00,19.0,3.0,-100.00,WSW,242,7.0,14.0,49,0.00,,,0.14,272.000000,,2013-01-11 22:53:00,
2013-01-11 16:02:00,19.0,3.0,-100.00,WSW,242,7.0,14.0,49,0.00,,,0.14,272.000000,,2013-01-11 23:02:00,
2013-01-11 16:12:00,19.0,3.0,-100.00,WSW,242,7.0,14.0,49,0.00,,,0.14,272.000000,,2013-01-11 23:12:00,
2013-01-11 16:22:00,19.0,3.0,-100.00,WSW,242,7.0,14.0,49,0.00,,,0.14,272.000000,,2013-01-11 23:22:00,
2013-01-11 16:30:00,14.0,2.0,-100.00,SW,221,6.0,18.0,57,0.00,,,0.14,191.000000,,2013-01-11 23:30:00,
2013-01-11 16:53:00,14.0,2.0,-100.00,SW,221,6.0,18.0,57,0.00,,,0.14,191.000000,,2013-01-11 23:53:00,
2013-01-11 17:02:00,14.0,2.0,-100.00,SW,221,6.0,18.0,57,0.00,,,0.14,191.000000,,2013-01-12 00:02:00,
2013-01-11 17:12:00,14.0,2.0,-100.00,SW,221,6.0,18.0,57,0.00,,,0.14,191.000000,,2013-01-12 00:12:00,
2013-01-11 17:22:00,14.0,2.0,-100.00,SW,221,6.0,18.0,57,0.00,,,0.14,191.000000,,2013-01-12 00:22:00,
2013-01-11 17:30:00,11.0,1.0,-100.00,WSW,251,3.0,11.0,64,0.00,,,0.14,20.000000,,2013-01-12 00:30:00,
2013-01-11 17:53:00,11.0,1.0,-100.00,WSW,251,3.0,11.0,64,0.00,,,0.14,20.000000,,2013-01-12 00:53:00,
2013-01-11 18:02:00,11.0,1.0,-100.00,WSW,251,3.0,11.0,64,0.00,,,0.14,20.000000,,2013-01-12 01:02:00,
2013-01-11 18:12:00,11.0,1.0,-100.00,WSW,251,3.0,11.0,64,0.00,,,0.14,20.000000,,2013-01-12 01:12:00,
2013-01-11 18:22:00,11.0,1.0,-100.00,WSW,251,3.0,11.0,64,0.00,,,0.14,20.000000,,2013-01-12 01:22:00,
2013-01-11 18:30:00,9.0,-4.0,-100.00,WSW,258,3.0,8.0,55,0.00,,,0.14,0.000000,,2013-01-12 01:30:00,
2013-01-11 18:52:00,9.0,-4.0,-100.00,WSW,258,3.0,8.0,55,0.00,,,0.14,0.000000,,2013-01-12 01:52:00,
2013-01-11 19:02:00,9.0,-4.0,-100.00,WSW,258,3.0,8.0,55,0.00,,,0.14,0.000000,,2013-01-12 02:02:00,
2013-01-11 19:12:00,9.0,-4.0,-100.00,WSW,258,3.0,8.0,55,0.00,,,0.14,0.000000,,2013-01-12 02:12:00,
2013-01-11 19:22:00,9.0,-4.0,-100.00,WSW,258,3.0,8.0,55,0.00,,,0.14,0.000000,,2013-01-12 02:22:00,
2013-01-11 19:30:00,6.0,-5.0,-100.00,North,356,2.0,6.0,60,0.00,,,0.14,0.000000,,2013-01-12 02:30:00,
2013-01-11 19:53:00,6.0,-5.0,-100.00,North,356,2.0,6.0,60,0.00,,,0.14,0.000000,,2013-01-12 02:53:00,
2013-01-11 20:02:00,6.0,-5.0,-100.00,North,356,2.0,6.0,60,0.00,,,0.14,0.000000,,2013-01-12 03:02:00,
2013-01-11 20:12:00,6.0,-5.0,-100.00,North,356,2.0,6.0,60,0.00,,,0.14,0.000000,,2013-01-12 03:12:00,
2013-01-11 20:22:00,6.0,-5.0,-100.00,North,356,2.0,6.0,60,0.00,,,0.14,0.000000,,2013-01-12 03:22:00,
2013-01-11 20:30:00,5.0,-5.0,-100.00,North,349,2.0,3.0,62,0.00,,,0.14,0.000000,,2013-01-12 03:30:00,
2013-01-11 20:53:00,5.0,-5.0,-100.00,North,349,2.0,3.0,62,0.00,,,0.14,0.000000,,2013-01-12 03:53:00,
2013-01-11 21:02:00,5.0,-5.0,-100.00,North,349,2.0,3.0,62,0.00,,,0.14,0.000000,,2013-01-12 04:02:00,
2013-01-11 21:12:00,5.0,-5.0,-100.00,North,349,2.0,3.0,62,0.00,,,0.14,0.000000,,2013-01-12 04:12:00,
2013-01-11 21:22:00,5.0,-5.0,-100.00,North,349,2.0,3.0,62,0.00,,,0.14,0.000000,,2013-01-12 04:22:00,
2013-01-11 21:30:00,5.0,-7.0,-100.00,NNW,334,2.0,5.0,57,0.00,,,0.14,0.000000,,2013-01-12 04:30:00,
2013-01-11 21:52:00,5.0,-7.0,-100.00,NNW,334,2.0,5.0,57,0.00,,,0.14,0.000000,,2013-01-12 04:52:00,
2013-01-11 22:03:00,5.0,-7.0,-100.00,NNW,334,2.0,5.0,57,0.00,,,0.14,0.000000,,2013-01-12 05:03:00,
2013-01-11 22:12:00,5.0,-7.0,-100.00,NNW,334,2.0,5.0,57,0.00,,,0.14,0.000000,,2013-01-12 05:12:00,
2013-01-11 22:22:00,5.0,-7.0,-100.00,NNW,334,2.0,5.0,57,0.00,,,0.14,0.000000,,2013-01-12 05:22:00,
2013-01-11 22:30:00,7.0,-6.0,-100.00,NNW,335,3.0,5.0,54,0.00,,,0.14,0.000000,,2013-01-12 05:30:00,
2013-01-11 22:52:00,7.0,-6.0,-100.00,NNW,335,3.0,5.0,54,0.00,,,0.14,0.000000,,2013-01-12 05:52:00,
2013-01-11 23:02:00,7.0,-6.0,-100.00,NNW,335,3.0,5.0,54,0.00,,,0.14,0.000000,,2013-01-12 06:02:00,
2013-01-11 23:12:00,7.0,-6.0,-100.00,NNW,335,3.0,5.0,54,0.00,,,0.14,0.000000,,2013-01-12 06:12:00,
2013-01-11 23:22:00,7.0,-6.0,-100.00,NNW,335,3.0,5.0,54,0.00,,,0.14,0.000000,,2013-01-12 06:22:00,
2013-01-11 23:52:00,5.0,-7.0,-100.00,North,358,2.0,4.0,58,0.00,,,0.14,0.000000,,2013-01-12 06:52:00,